Year,Month,Day,Hour,Minute,Value (Times are PST for temperature in C)
2010,07,30,00,00,15.10
2010,07,30,00,01,15.00
2010,07,30,00,02,15.00
2010,07,30,00,03,15.00
2010,07,30,00,04,15.00
2010,07,30,00,05,14.90
2010,07,30,00,06,14.90
2010,07,30,00,07,14.90
2010,07,30,00,08,14.90
2010,07,30,00,09,14.80
2010,07,30,00,10,14.80
2010,07,30,00,11,14.80
2010,07,30,00,12,14.80
2010,07,30,00,13,14.80
2010,07,30,00,14,14.80
2010,07,30,00,15,14.80
2010,07,30,00,16,14.80
2010,07,30,00,17,14.80
2010,07,30,00,18,14.70
2010,07,30,00,19,14.70
2010,07,30,00,20,14.70
2010,07,30,00,21,14.70
2010,07,30,00,22,14.60
2010,07,30,00,23,14.60
2010,07,30,00,24,14.60
2010,07,30,00,25,14.60
2010,07,30,00,26,14.60
2010,07,30,00,27,14.60
2010,07,30,00,28,14.50
2010,07,30,00,29,14.50
2010,07,30,00,30,14.50
2010,07,30,00,31,14.50
2010,07,30,00,32,14.50
2010,07,30,00,33,14.40
2010,07,30,00,34,14.40
2010,07,30,00,35,14.40
2010,07,30,00,36,14.40
2010,07,30,00,37,14.40
2010,07,30,00,38,14.40
2010,07,30,00,39,14.30
2010,07,30,00,40,14.30
2010,07,30,00,41,14.30
2010,07,30,00,42,14.30
2010,07,30,00,43,14.30
2010,07,30,00,44,14.30
2010,07,30,00,45,14.20
2010,07,30,00,46,14.20
2010,07,30,00,47,14.20
2010,07,30,00,48,14.20
2010,07,30,00,49,14.20
2010,07,30,00,50,14.20
2010,07,30,00,51,14.20
2010,07,30,00,52,14.20
2010,07,30,00,53,14.20
2010,07,30,00,54,14.20
2010,07,30,00,55,14.20
2010,07,30,00,56,14.20
2010,07,30,00,57,14.20
2010,07,30,00,58,14.20
2010,07,30,00,59,14.20
2010,07,30,01,00,14.10
2010,07,30,01,01,14.10
2010,07,30,01,02,14.10
2010,07,30,01,03,14.10
2010,07,30,01,04,14.10
2010,07,30,01,05,14.10
2010,07,30,01,06,14.00
2010,07,30,01,07,14.00
2010,07,30,01,08,14.00
2010,07,30,01,09,14.00
2010,07,30,01,10,14.00
2010,07,30,01,11,14.00
2010,07,30,01,12,14.00
2010,07,30,01,13,14.00
2010,07,30,01,14,13.90
2010,07,30,01,15,13.90
2010,07,30,01,16,13.90
2010,07,30,01,17,13.90
2010,07,30,01,18,13.90
2010,07,30,01,19,13.90
2010,07,30,01,20,13.90
2010,07,30,01,21,13.90
2010,07,30,01,22,13.90
2010,07,30,01,23,13.80
2010,07,30,01,24,13.80
2010,07,30,01,25,13.80
2010,07,30,01,26,13.80
2010,07,30,01,27,13.80
2010,07,30,01,28,13.70
2010,07,30,01,29,13.70
2010,07,30,01,30,13.70
2010,07,30,01,31,13.70
2010,07,30,01,32,13.70
2010,07,30,01,33,13.70
2010,07,30,01,34,13.70
2010,07,30,01,35,13.70
2010,07,30,01,36,13.70
2010,07,30,01,37,13.70
2010,07,30,01,38,13.70
2010,07,30,01,39,13.70
2010,07,30,01,40,13.70
2010,07,30,01,41,13.60
2010,07,30,01,42,13.60
2010,07,30,01,43,13.60
2010,07,30,01,44,13.60
2010,07,30,01,45,13.60
2010,07,30,01,46,13.60
2010,07,30,01,47,13.60
2010,07,30,01,48,13.50
2010,07,30,01,49,13.50
2010,07,30,01,50,13.50
2010,07,30,01,51,13.50
2010,07,30,01,52,13.50
2010,07,30,01,53,13.50
2010,07,30,01,54,13.50
2010,07,30,01,55,13.50
2010,07,30,01,56,13.40
2010,07,30,01,57,13.40
2010,07,30,01,58,13.40
2010,07,30,01,59,13.40
2010,07,30,02,00,13.40
2010,07,30,02,01,13.30
2010,07,30,02,02,13.30
2010,07,30,02,03,13.30
2010,07,30,02,04,13.30
2010,07,30,02,05,13.30
2010,07,30,02,06,13.30
2010,07,30,02,07,13.30
2010,07,30,02,08,13.30
2010,07,30,02,09,13.30
2010,07,30,02,10,13.30
2010,07,30,02,11,13.30
2010,07,30,02,12,13.30
2010,07,30,02,13,13.30
2010,07,30,02,14,13.30
2010,07,30,02,15,13.30
2010,07,30,02,16,13.20
2010,07,30,02,17,13.20
2010,07,30,02,18,13.20
2010,07,30,02,19,13.20
2010,07,30,02,20,13.10
2010,07,30,02,21,13.10
2010,07,30,02,22,13.10
2010,07,30,02,23,13.10
2010,07,30,02,24,13.00
2010,07,30,02,25,13.00
2010,07,30,02,26,13.00
2010,07,30,02,27,13.00
2010,07,30,02,28,12.90
2010,07,30,02,29,12.90
2010,07,30,02,30,12.90
2010,07,30,02,31,12.90
2010,07,30,02,32,12.90
2010,07,30,02,33,12.90
2010,07,30,02,34,12.90
2010,07,30,02,35,12.90
2010,07,30,02,36,12.80
2010,07,30,02,37,12.80
2010,07,30,02,38,12.80
2010,07,30,02,39,12.80
2010,07,30,02,40,12.80
2010,07,30,02,41,12.80
2010,07,30,02,42,12.80
2010,07,30,02,43,12.80
2010,07,30,02,44,12.80
2010,07,30,02,45,12.80
2010,07,30,02,46,12.80
2010,07,30,02,47,12.80
2010,07,30,02,48,12.80
2010,07,30,02,49,12.80
2010,07,30,02,50,12.80
2010,07,30,02,51,12.80
2010,07,30,02,52,12.80
2010,07,30,02,53,12.80
2010,07,30,02,54,12.80
2010,07,30,02,55,12.80
2010,07,30,02,56,12.80
2010,07,30,02,57,12.80
2010,07,30,02,58,12.80
2010,07,30,02,59,12.80
2010,07,30,03,00,12.80
2010,07,30,03,01,12.80
2010,07,30,03,02,12.80
2010,07,30,03,03,12.80
2010,07,30,03,04,12.80
2010,07,30,03,05,12.80
2010,07,30,03,06,12.80
2010,07,30,03,07,12.80
2010,07,30,03,08,12.80
2010,07,30,03,09,12.80
2010,07,30,03,10,12.80
2010,07,30,03,11,12.80
2010,07,30,03,12,12.70
2010,07,30,03,13,12.70
2010,07,30,03,14,12.70
2010,07,30,03,15,12.70
2010,07,30,03,16,12.70
2010,07,30,03,17,12.70
2010,07,30,03,18,12.70
2010,07,30,03,19,12.60
2010,07,30,03,20,12.60
2010,07,30,03,21,12.60
2010,07,30,03,22,12.60
2010,07,30,03,23,12.60
2010,07,30,03,24,12.60
2010,07,30,03,25,12.60
2010,07,30,03,26,12.60
2010,07,30,03,27,12.60
2010,07,30,03,28,12.60
2010,07,30,03,29,12.60
2010,07,30,03,30,12.60
2010,07,30,03,31,12.60
2010,07,30,03,32,12.60
2010,07,30,03,33,12.60
2010,07,30,03,34,12.60
2010,07,30,03,35,12.60
2010,07,30,03,36,12.60
2010,07,30,03,37,12.60
2010,07,30,03,38,12.60
2010,07,30,03,39,12.60
2010,07,30,03,40,12.50
2010,07,30,03,41,12.50
2010,07,30,03,42,12.50
2010,07,30,03,43,12.50
2010,07,30,03,44,12.50
2010,07,30,03,45,12.50
2010,07,30,03,46,12.40
2010,07,30,03,47,12.40
2010,07,30,03,48,12.40
2010,07,30,03,49,12.40
2010,07,30,03,50,12.40
2010,07,30,03,51,12.40
2010,07,30,03,52,12.40
2010,07,30,03,53,12.40
2010,07,30,03,54,12.40
2010,07,30,03,55,12.40
2010,07,30,03,56,12.40
2010,07,30,03,57,12.40
2010,07,30,03,58,12.40
2010,07,30,03,59,12.40
2010,07,30,04,00,12.40
2010,07,30,04,01,12.40
2010,07,30,04,02,12.30
2010,07,30,04,03,12.30
2010,07,30,04,04,12.30
2010,07,30,04,05,12.30
2010,07,30,04,06,12.30
2010,07,30,04,07,12.30
2010,07,30,04,08,12.30
2010,07,30,04,09,12.30
2010,07,30,04,10,12.30
2010,07,30,04,11,12.30
2010,07,30,04,12,12.30
2010,07,30,04,13,12.30
2010,07,30,04,14,12.20
2010,07,30,04,15,12.20
2010,07,30,04,16,12.20
2010,07,30,04,17,12.20
2010,07,30,04,18,12.10
2010,07,30,04,19,12.10
2010,07,30,04,20,12.10
2010,07,30,04,21,12.10
2010,07,30,04,22,12.10
2010,07,30,04,23,12.10
2010,07,30,04,24,12.10
2010,07,30,04,25,12.00
2010,07,30,04,26,12.00
2010,07,30,04,27,12.00
2010,07,30,04,28,12.00
2010,07,30,04,29,12.00
2010,07,30,04,30,11.90
2010,07,30,04,31,11.90
2010,07,30,04,32,11.90
2010,07,30,04,33,11.90
2010,07,30,04,34,11.90
2010,07,30,04,35,11.90
2010,07,30,04,36,11.90
2010,07,30,04,37,11.90
2010,07,30,04,38,11.90
2010,07,30,04,39,11.90
2010,07,30,04,40,11.90
2010,07,30,04,41,11.90
2010,07,30,04,42,11.90
2010,07,30,04,43,11.90
2010,07,30,04,44,11.90
2010,07,30,04,45,11.90
2010,07,30,04,46,11.80
2010,07,30,04,47,11.80
2010,07,30,04,48,11.80
2010,07,30,04,49,11.80
2010,07,30,04,50,11.80
2010,07,30,04,51,11.80
2010,07,30,04,52,11.80
2010,07,30,04,53,11.80
2010,07,30,04,54,11.80
2010,07,30,04,55,11.80
2010,07,30,04,56,11.70
2010,07,30,04,57,11.70
2010,07,30,04,58,11.70
2010,07,30,04,59,11.70
2010,07,30,05,00,11.60
2010,07,30,05,01,11.60
2010,07,30,05,02,11.60
2010,07,30,05,03,11.60
2010,07,30,05,04,11.60
2010,07,30,05,05,11.60
2010,07,30,05,06,11.60
2010,07,30,05,07,11.60
2010,07,30,05,08,11.60
2010,07,30,05,09,11.60
2010,07,30,05,10,11.50
2010,07,30,05,11,11.40
2010,07,30,05,12,11.40
2010,07,30,05,13,11.40
2010,07,30,05,14,11.40
2010,07,30,05,15,11.40
2010,07,30,05,16,11.40
2010,07,30,05,17,11.40
2010,07,30,05,18,11.40
2010,07,30,05,19,11.40
2010,07,30,05,20,11.40
2010,07,30,05,21,11.40
2010,07,30,05,22,11.30
2010,07,30,05,23,11.30
2010,07,30,05,24,11.30
2010,07,30,05,25,11.30
2010,07,30,05,26,11.20
2010,07,30,05,27,11.20
2010,07,30,05,28,11.20
2010,07,30,05,29,11.20
2010,07,30,05,30,11.10
2010,07,30,05,31,11.10
2010,07,30,05,32,11.10
2010,07,30,05,33,11.10
2010,07,30,05,34,11.10
2010,07,30,05,35,11.10
2010,07,30,05,36,11.10
2010,07,30,05,37,11.10
2010,07,30,05,38,11.10
2010,07,30,05,39,11.10
2010,07,30,05,40,11.10
2010,07,30,05,41,11.10
2010,07,30,05,42,11.10
2010,07,30,05,43,11.10
2010,07,30,05,44,11.10
2010,07,30,05,45,11.10
2010,07,30,05,46,11.10
2010,07,30,05,47,11.10
2010,07,30,05,48,11.10
2010,07,30,05,49,11.00
2010,07,30,05,50,10.90
2010,07,30,05,51,10.90
2010,07,30,05,52,10.90
2010,07,30,05,53,10.90
2010,07,30,05,54,10.90
2010,07,30,05,55,10.90
2010,07,30,05,56,10.90
2010,07,30,05,57,10.90
2010,07,30,05,58,10.90
2010,07,30,05,59,10.90
2010,07,30,06,00,10.90
2010,07,30,06,01,10.90
2010,07,30,06,02,10.90
2010,07,30,06,03,10.80
2010,07,30,06,04,10.80
2010,07,30,06,05,10.80
2010,07,30,06,06,10.80
2010,07,30,06,07,10.80
2010,07,30,06,08,10.80
2010,07,30,06,09,10.70
2010,07,30,06,10,10.70
2010,07,30,06,11,10.70
2010,07,30,06,12,10.70
2010,07,30,06,13,10.70
2010,07,30,06,14,10.70
2010,07,30,06,15,10.70
2010,07,30,06,16,10.70
2010,07,30,06,17,10.70
2010,07,30,06,18,10.70
2010,07,30,06,19,10.70
2010,07,30,06,20,10.70
2010,07,30,06,21,10.70
2010,07,30,06,22,10.70
2010,07,30,06,23,10.70
2010,07,30,06,24,10.80
2010,07,30,06,25,10.80
2010,07,30,06,26,10.80
2010,07,30,06,27,10.80
2010,07,30,06,28,10.80
2010,07,30,06,29,10.90
2010,07,30,06,30,10.90
2010,07,30,06,31,10.90
2010,07,30,06,32,10.90
2010,07,30,06,33,10.90
2010,07,30,06,34,11.00
2010,07,30,06,35,11.10
2010,07,30,06,36,11.10
2010,07,30,06,37,11.10
2010,07,30,06,38,11.10
2010,07,30,06,39,11.20
2010,07,30,06,40,11.20
2010,07,30,06,41,11.30
2010,07,30,06,42,11.30
2010,07,30,06,43,11.40
2010,07,30,06,44,11.40
2010,07,30,06,45,11.50
2010,07,30,06,46,11.60
2010,07,30,06,47,11.60
2010,07,30,06,48,11.60
2010,07,30,06,49,11.70
2010,07,30,06,50,11.70
2010,07,30,06,51,11.80
2010,07,30,06,52,11.80
2010,07,30,06,53,11.80
2010,07,30,06,54,11.80
2010,07,30,06,55,11.90
2010,07,30,06,56,11.90
2010,07,30,06,57,12.00
2010,07,30,06,58,12.00
2010,07,30,06,59,12.10
2010,07,30,07,00,12.10
2010,07,30,07,01,12.10
2010,07,30,07,02,12.20
2010,07,30,07,03,12.30
2010,07,30,07,04,12.30
2010,07,30,07,05,12.30
2010,07,30,07,06,12.30
2010,07,30,07,07,12.40
2010,07,30,07,08,12.40
2010,07,30,07,09,12.50
2010,07,30,07,10,12.50
2010,07,30,07,11,12.60
2010,07,30,07,12,12.70
2010,07,30,07,13,12.80
2010,07,30,07,14,12.80
2010,07,30,07,15,12.80
2010,07,30,07,16,12.80
2010,07,30,07,17,12.90
2010,07,30,07,18,12.90
2010,07,30,07,19,12.90
2010,07,30,07,20,13.00
2010,07,30,07,21,13.10
2010,07,30,07,22,13.10
2010,07,30,07,23,13.20
2010,07,30,07,24,13.30
2010,07,30,07,25,13.30
2010,07,30,07,26,13.30
2010,07,30,07,27,13.40
2010,07,30,07,28,13.50
2010,07,30,07,29,13.60
2010,07,30,07,30,13.70
2010,07,30,07,31,13.70
2010,07,30,07,32,13.80
2010,07,30,07,33,13.90
2010,07,30,07,34,14.00
2010,07,30,07,35,14.10
2010,07,30,07,36,14.20
2010,07,30,07,37,14.20
2010,07,30,07,38,14.20
2010,07,30,07,39,14.30
2010,07,30,07,40,14.40
2010,07,30,07,41,14.50
2010,07,30,07,42,14.50
2010,07,30,07,43,14.60
2010,07,30,07,44,14.70
2010,07,30,07,45,14.80
2010,07,30,07,46,14.80
2010,07,30,07,47,14.90
2010,07,30,07,48,15.00
2010,07,30,07,49,15.10
2010,07,30,07,50,15.10
2010,07,30,07,51,15.20
2010,07,30,07,52,15.30
2010,07,30,07,53,15.30
2010,07,30,07,54,15.40
2010,07,30,07,55,15.50
2010,07,30,07,56,15.60
2010,07,30,07,57,15.70
2010,07,30,07,58,15.80
2010,07,30,07,59,15.90
2010,07,30,08,00,16.00
2010,07,30,08,01,16.10
2010,07,30,08,02,16.10
2010,07,30,08,03,16.20
2010,07,30,08,04,16.30
2010,07,30,08,05,16.40
2010,07,30,08,06,16.50
2010,07,30,08,07,16.60
2010,07,30,08,08,16.70
2010,07,30,08,09,16.70
2010,07,30,08,10,16.70
2010,07,30,08,11,16.80
2010,07,30,08,12,16.80
2010,07,30,08,13,16.90
2010,07,30,08,14,16.90
2010,07,30,08,15,17.00
2010,07,30,08,16,17.10
2010,07,30,08,17,17.10
2010,07,30,08,18,17.10
2010,07,30,08,19,17.10
2010,07,30,08,20,17.10
2010,07,30,08,21,17.00
2010,07,30,08,22,17.00
2010,07,30,08,23,16.90
2010,07,30,08,24,16.80
2010,07,30,08,25,16.80
2010,07,30,08,26,16.80
2010,07,30,08,27,16.90
2010,07,30,08,28,16.90
2010,07,30,08,29,17.00
2010,07,30,08,30,17.00
2010,07,30,08,31,17.00
2010,07,30,08,32,17.00
2010,07,30,08,33,17.00
2010,07,30,08,34,17.00
2010,07,30,08,35,17.10
2010,07,30,08,36,17.10
2010,07,30,08,37,17.20
2010,07,30,08,38,17.20
2010,07,30,08,39,17.20
2010,07,30,08,40,17.30
2010,07,30,08,41,17.20
2010,07,30,08,42,17.20
2010,07,30,08,43,17.20
2010,07,30,08,44,17.10
2010,07,30,08,45,17.20
2010,07,30,08,46,17.20
2010,07,30,08,47,17.30
2010,07,30,08,48,17.30
2010,07,30,08,49,17.30
2010,07,30,08,50,17.30
2010,07,30,08,51,17.30
2010,07,30,08,52,17.20
2010,07,30,08,53,17.20
2010,07,30,08,54,17.20
2010,07,30,08,55,17.10
2010,07,30,08,56,17.10
2010,07,30,08,57,17.10
2010,07,30,08,58,17.10
2010,07,30,08,59,17.20
2010,07,30,09,00,17.30
2010,07,30,09,01,17.30
2010,07,30,09,02,17.30
2010,07,30,09,03,17.30
2010,07,30,09,04,17.30
2010,07,30,09,05,17.30
2010,07,30,09,06,17.30
2010,07,30,09,07,17.30
2010,07,30,09,08,17.30
2010,07,30,09,09,17.30
2010,07,30,09,10,17.40
2010,07,30,09,11,17.50
2010,07,30,09,12,17.50
2010,07,30,09,13,17.50
2010,07,30,09,14,17.50
2010,07,30,09,15,17.50
2010,07,30,09,16,17.50
2010,07,30,09,17,17.50
2010,07,30,09,18,17.50
2010,07,30,09,19,17.50
2010,07,30,09,20,17.40
2010,07,30,09,21,17.30
2010,07,30,09,22,17.30
2010,07,30,09,23,17.20
2010,07,30,09,24,17.20
2010,07,30,09,25,17.20
2010,07,30,09,26,17.30
2010,07,30,09,27,17.30
2010,07,30,09,28,17.40
2010,07,30,09,29,17.50
2010,07,30,09,30,17.60
2010,07,30,09,31,17.70
2010,07,30,09,32,17.80
2010,07,30,09,33,17.90
2010,07,30,09,34,17.90
2010,07,30,09,35,17.90
2010,07,30,09,36,17.90
2010,07,30,09,37,17.90
2010,07,30,09,38,17.90
2010,07,30,09,39,17.80
2010,07,30,09,40,17.80
2010,07,30,09,41,17.80
2010,07,30,09,42,17.80
2010,07,30,09,43,17.80
2010,07,30,09,44,17.70
2010,07,30,09,45,17.80
2010,07,30,09,46,17.80
2010,07,30,09,47,17.70
2010,07,30,09,48,17.70
2010,07,30,09,49,17.70
2010,07,30,09,50,17.80
2010,07,30,09,51,17.80
2010,07,30,09,52,17.70
2010,07,30,09,53,17.60
2010,07,30,09,54,17.50
2010,07,30,09,55,17.40
2010,07,30,09,56,17.50
2010,07,30,09,57,17.50
2010,07,30,09,58,17.60
2010,07,30,09,59,17.60
2010,07,30,10,00,17.70
2010,07,30,10,01,17.70
2010,07,30,10,02,17.90
2010,07,30,10,03,17.90
2010,07,30,10,04,17.90
2010,07,30,10,05,17.90
2010,07,30,10,06,17.90
2010,07,30,10,07,17.80
2010,07,30,10,08,17.80
2010,07,30,10,09,17.70
2010,07,30,10,10,17.70
2010,07,30,10,11,17.60
2010,07,30,10,12,17.60
2010,07,30,10,13,17.50
2010,07,30,10,14,17.50
2010,07,30,10,15,17.50
2010,07,30,10,16,17.60
2010,07,30,10,17,17.60
2010,07,30,10,18,17.70
2010,07,30,10,19,17.60
2010,07,30,10,20,17.70
2010,07,30,10,21,17.70
2010,07,30,10,22,17.80
2010,07,30,10,23,18.00
2010,07,30,10,24,18.10
2010,07,30,10,25,18.10
2010,07,30,10,26,18.10
2010,07,30,10,27,18.10
2010,07,30,10,28,17.90
2010,07,30,10,29,17.80
2010,07,30,10,30,17.80
2010,07,30,10,31,17.80
2010,07,30,10,32,17.80
2010,07,30,10,33,17.70
2010,07,30,10,34,17.50
2010,07,30,10,35,17.50
2010,07,30,10,36,17.40
2010,07,30,10,37,17.40
2010,07,30,10,38,17.30
2010,07,30,10,39,17.20
2010,07,30,10,40,17.20
2010,07,30,10,41,17.30
2010,07,30,10,42,17.30
2010,07,30,10,43,17.30
2010,07,30,10,44,17.50
2010,07,30,10,45,17.60
2010,07,30,10,46,17.60
2010,07,30,10,47,17.70
2010,07,30,10,48,17.70
2010,07,30,10,49,17.80
2010,07,30,10,50,17.80
2010,07,30,10,51,17.80
2010,07,30,10,52,17.90
2010,07,30,10,53,17.90
2010,07,30,10,54,17.90
2010,07,30,10,55,18.10
2010,07,30,10,56,18.00
2010,07,30,10,57,18.10
2010,07,30,10,58,18.20
2010,07,30,10,59,18.20
2010,07,30,11,00,18.20
2010,07,30,11,01,18.40
2010,07,30,11,02,18.50
2010,07,30,11,03,18.60
2010,07,30,11,04,18.60
2010,07,30,11,05,18.50
2010,07,30,11,06,18.50
2010,07,30,11,07,18.50
2010,07,30,11,08,18.50
2010,07,30,11,09,18.20
2010,07,30,11,10,18.20
2010,07,30,11,11,18.20
2010,07,30,11,12,18.20
2010,07,30,11,13,18.30
2010,07,30,11,14,18.40
2010,07,30,11,15,18.50
2010,07,30,11,16,18.40
2010,07,30,11,17,18.30
2010,07,30,11,18,18.20
2010,07,30,11,19,18.20
2010,07,30,11,20,18.20
2010,07,30,11,21,18.20
2010,07,30,11,22,18.10
2010,07,30,11,23,18.10
2010,07,30,11,24,18.20
2010,07,30,11,25,18.20
2010,07,30,11,26,18.30
2010,07,30,11,27,18.40
2010,07,30,11,28,18.60
2010,07,30,11,29,18.60
2010,07,30,11,30,18.60
2010,07,30,11,31,18.60
2010,07,30,11,32,18.60
2010,07,30,11,33,18.50
2010,07,30,11,34,18.30
2010,07,30,11,35,18.10
2010,07,30,11,36,18.10
2010,07,30,11,37,18.10
2010,07,30,11,38,18.10
2010,07,30,11,39,18.00
2010,07,30,11,40,17.90
2010,07,30,11,41,18.00
2010,07,30,11,42,18.10
2010,07,30,11,43,18.20
2010,07,30,11,44,18.20
2010,07,30,11,45,18.20
2010,07,30,11,46,18.20
2010,07,30,11,47,18.20
2010,07,30,11,48,18.00
2010,07,30,11,49,17.90
2010,07,30,11,50,17.80
2010,07,30,11,51,18.00
2010,07,30,11,52,18.10
2010,07,30,11,53,18.20
2010,07,30,11,54,18.20
2010,07,30,11,55,18.30
2010,07,30,11,56,18.40
2010,07,30,11,57,18.50
2010,07,30,11,58,18.60
2010,07,30,11,59,18.80
2010,07,30,12,00,18.90
2010,07,30,12,01,18.90
2010,07,30,12,02,18.90
2010,07,30,12,03,18.90
2010,07,30,12,04,18.90
2010,07,30,12,05,18.90
2010,07,30,12,06,18.90
2010,07,30,12,07,18.80
2010,07,30,12,08,18.80
2010,07,30,12,09,18.70
2010,07,30,12,10,18.70
2010,07,30,12,11,18.70
2010,07,30,12,12,18.70
2010,07,30,12,13,18.70
2010,07,30,12,14,18.70
2010,07,30,12,15,18.80
2010,07,30,12,16,18.90
2010,07,30,12,17,19.00
2010,07,30,12,18,19.10
2010,07,30,12,19,19.10
2010,07,30,12,20,19.00
2010,07,30,12,21,18.90
2010,07,30,12,22,18.80
2010,07,30,12,23,18.80
2010,07,30,12,24,18.90
2010,07,30,12,25,18.90
2010,07,30,12,26,19.00
2010,07,30,12,27,19.10
2010,07,30,12,28,19.10
2010,07,30,12,29,19.10
2010,07,30,12,30,19.10
2010,07,30,12,31,19.10
2010,07,30,12,32,19.30
2010,07,30,12,33,19.40
2010,07,30,12,34,19.40
2010,07,30,12,35,19.50
2010,07,30,12,36,19.50
2010,07,30,12,37,19.60
2010,07,30,12,38,19.60
2010,07,30,12,39,19.50
2010,07,30,12,40,19.40
2010,07,30,12,41,19.40
2010,07,30,12,42,19.40
2010,07,30,12,43,19.60
2010,07,30,12,44,19.70
2010,07,30,12,45,19.70
2010,07,30,12,46,19.70
2010,07,30,12,47,19.80
2010,07,30,12,48,19.80
2010,07,30,12,49,19.70
2010,07,30,12,50,19.60
2010,07,30,12,51,19.40
2010,07,30,12,52,19.40
2010,07,30,12,53,19.40
2010,07,30,12,54,19.60
2010,07,30,12,55,19.70
2010,07,30,12,56,19.70
2010,07,30,12,57,19.70
2010,07,30,12,58,19.70
2010,07,30,12,59,19.80
2010,07,30,13,00,19.90
2010,07,30,13,01,19.80
2010,07,30,13,02,19.80
2010,07,30,13,03,19.70
2010,07,30,13,04,19.70
2010,07,30,13,05,19.70
2010,07,30,13,06,19.60
2010,07,30,13,07,19.70
2010,07,30,13,08,19.80
2010,07,30,13,09,19.70
2010,07,30,13,10,19.60
2010,07,30,13,11,19.60
2010,07,30,13,12,19.50
2010,07,30,13,13,19.60
2010,07,30,13,14,19.70
2010,07,30,13,15,19.90
2010,07,30,13,16,20.10
2010,07,30,13,17,20.20
2010,07,30,13,18,20.20
2010,07,30,13,19,20.20
2010,07,30,13,20,20.20
2010,07,30,13,21,20.30
2010,07,30,13,22,20.40
2010,07,30,13,23,20.50
2010,07,30,13,24,20.70
2010,07,30,13,25,20.90
2010,07,30,13,26,21.10
2010,07,30,13,27,21.20
2010,07,30,13,28,21.10
2010,07,30,13,29,21.10
2010,07,30,13,30,21.20
2010,07,30,13,31,21.10
2010,07,30,13,32,21.00
2010,07,30,13,33,20.80
2010,07,30,13,34,20.60
2010,07,30,13,35,20.50
2010,07,30,13,36,20.50
2010,07,30,13,37,20.60
2010,07,30,13,38,20.70
2010,07,30,13,39,20.80
2010,07,30,13,40,20.80
2010,07,30,13,41,20.80
2010,07,30,13,42,20.70
2010,07,30,13,43,20.60
2010,07,30,13,44,20.40
2010,07,30,13,45,20.10
2010,07,30,13,46,20.00
2010,07,30,13,47,20.00
2010,07,30,13,48,20.10
2010,07,30,13,49,20.10
2010,07,30,13,50,20.10
2010,07,30,13,51,20.00
2010,07,30,13,52,20.00
2010,07,30,13,53,20.10
2010,07,30,13,54,20.20
2010,07,30,13,55,20.30
2010,07,30,13,56,20.40
2010,07,30,13,57,20.30
2010,07,30,13,58,20.30
2010,07,30,13,59,20.20
2010,07,30,14,00,20.20
2010,07,30,14,01,20.20
2010,07,30,14,02,20.10
2010,07,30,14,03,19.90
2010,07,30,14,04,19.80
2010,07,30,14,05,19.60
2010,07,30,14,06,19.50
2010,07,30,14,07,19.40
2010,07,30,14,08,19.30
2010,07,30,14,09,19.20
2010,07,30,14,10,19.10
2010,07,30,14,11,19.10
2010,07,30,14,12,19.10
2010,07,30,14,13,19.20
2010,07,30,14,14,19.20
2010,07,30,14,15,19.30
2010,07,30,14,16,19.20
2010,07,30,14,17,19.30
2010,07,30,14,18,19.40
2010,07,30,14,19,19.50
2010,07,30,14,20,19.70
2010,07,30,14,21,19.90
2010,07,30,14,22,19.90
2010,07,30,14,23,19.90
2010,07,30,14,24,20.10
2010,07,30,14,25,20.20
2010,07,30,14,26,20.20
2010,07,30,14,27,20.20
2010,07,30,14,28,20.10
2010,07,30,14,29,20.10
2010,07,30,14,30,20.10
2010,07,30,14,31,20.20
2010,07,30,14,32,20.30
2010,07,30,14,33,20.40
2010,07,30,14,34,20.40
2010,07,30,14,35,20.50
2010,07,30,14,36,20.50
2010,07,30,14,37,20.40
2010,07,30,14,38,20.30
2010,07,30,14,39,20.20
2010,07,30,14,40,20.10
2010,07,30,14,41,20.00
2010,07,30,14,42,19.80
2010,07,30,14,43,19.70
2010,07,30,14,44,19.70
2010,07,30,14,45,19.70
2010,07,30,14,46,19.70
2010,07,30,14,47,19.70
2010,07,30,14,48,19.80
2010,07,30,14,49,19.80
2010,07,30,14,50,19.90
2010,07,30,14,51,19.90
2010,07,30,14,52,20.00
2010,07,30,14,53,20.20
2010,07,30,14,54,20.30
2010,07,30,14,55,20.40
2010,07,30,14,56,20.40
2010,07,30,14,57,20.50
2010,07,30,14,58,20.60
2010,07,30,14,59,20.60
2010,07,30,15,00,20.60
2010,07,30,15,01,20.60
2010,07,30,15,02,20.60
2010,07,30,15,03,20.60
2010,07,30,15,04,20.80
2010,07,30,15,05,20.80
2010,07,30,15,06,20.90
2010,07,30,15,07,20.90
2010,07,30,15,08,20.90
2010,07,30,15,09,21.00
2010,07,30,15,10,20.90
2010,07,30,15,11,20.90
2010,07,30,15,12,20.90
2010,07,30,15,13,20.90
2010,07,30,15,14,20.90
2010,07,30,15,15,20.90
2010,07,30,15,16,20.90
2010,07,30,15,17,21.00
2010,07,30,15,18,21.00
2010,07,30,15,19,21.10
2010,07,30,15,20,21.20
2010,07,30,15,21,21.30
2010,07,30,15,22,21.30
2010,07,30,15,23,21.30
2010,07,30,15,24,21.40
2010,07,30,15,25,21.40
2010,07,30,15,26,21.30
2010,07,30,15,27,21.20
2010,07,30,15,28,21.10
2010,07,30,15,29,21.10
2010,07,30,15,30,21.20
2010,07,30,15,31,21.30
2010,07,30,15,32,21.30
2010,07,30,15,33,21.30
2010,07,30,15,34,21.50
2010,07,30,15,35,21.60
2010,07,30,15,36,21.60
2010,07,30,15,37,21.50
2010,07,30,15,38,21.30
2010,07,30,15,39,21.20
2010,07,30,15,40,21.30
2010,07,30,15,41,21.40
2010,07,30,15,42,21.40
2010,07,30,15,43,21.30
2010,07,30,15,44,21.30
2010,07,30,15,45,21.30
2010,07,30,15,46,21.20
2010,07,30,15,47,21.00
2010,07,30,15,48,21.00
2010,07,30,15,49,20.90
2010,07,30,15,50,21.00
2010,07,30,15,51,21.00
2010,07,30,15,52,21.10
2010,07,30,15,53,21.10
2010,07,30,15,54,21.20
2010,07,30,15,55,21.30
2010,07,30,15,56,21.30
2010,07,30,15,57,21.30
2010,07,30,15,58,21.30
2010,07,30,15,59,21.40
2010,07,30,16,00,21.50
2010,07,30,16,01,21.50
2010,07,30,16,02,21.50
2010,07,30,16,03,21.60
2010,07,30,16,04,21.40
2010,07,30,16,05,21.40
2010,07,30,16,06,21.50
2010,07,30,16,07,21.60
2010,07,30,16,08,21.60
2010,07,30,16,09,21.60
2010,07,30,16,10,21.60
2010,07,30,16,11,21.70
2010,07,30,16,12,21.70
2010,07,30,16,13,21.70
2010,07,30,16,14,21.70
2010,07,30,16,15,21.60
2010,07,30,16,16,21.40
2010,07,30,16,17,21.40
2010,07,30,16,18,21.40
2010,07,30,16,19,21.40
2010,07,30,16,20,21.50
2010,07,30,16,21,21.60
2010,07,30,16,22,21.60
2010,07,30,16,23,21.70
2010,07,30,16,24,21.80
2010,07,30,16,25,21.90
2010,07,30,16,26,22.10
2010,07,30,16,27,22.20
2010,07,30,16,28,22.20
2010,07,30,16,29,22.40
2010,07,30,16,30,22.50
2010,07,30,16,31,22.60
2010,07,30,16,32,22.70
2010,07,30,16,33,22.80
2010,07,30,16,34,22.90
2010,07,30,16,35,23.00
2010,07,30,16,36,23.20
2010,07,30,16,37,23.30
2010,07,30,16,38,23.40
2010,07,30,16,39,23.60
2010,07,30,16,40,23.80
2010,07,30,16,41,23.90
2010,07,30,16,42,23.90
2010,07,30,16,43,23.90
2010,07,30,16,44,24.00
2010,07,30,16,45,24.10
2010,07,30,16,46,24.10
2010,07,30,16,47,24.10
2010,07,30,16,48,24.20
2010,07,30,16,49,24.30
2010,07,30,16,50,24.40
2010,07,30,16,51,24.50
2010,07,30,16,52,24.70
2010,07,30,16,53,24.80
2010,07,30,16,54,24.90
2010,07,30,16,55,25.00
2010,07,30,16,56,25.00
2010,07,30,16,57,25.10
2010,07,30,16,58,25.10
2010,07,30,16,59,25.20
2010,07,30,17,00,25.20
2010,07,30,17,01,25.30
2010,07,30,17,02,25.40
2010,07,30,17,03,25.50
2010,07,30,17,04,25.60
2010,07,30,17,05,25.70
2010,07,30,17,06,25.50
2010,07,30,17,07,25.50
2010,07,30,17,08,25.40
2010,07,30,17,09,25.40
2010,07,30,17,10,25.40
2010,07,30,17,11,25.40
2010,07,30,17,12,25.20
2010,07,30,17,13,25.20
2010,07,30,17,14,25.30
2010,07,30,17,15,25.30
2010,07,30,17,16,25.30
2010,07,30,17,17,25.40
2010,07,30,17,18,25.30
2010,07,30,17,19,25.20